This is the latest recevied weather packets stored in our database for station/object EMGATE. If no packets are shown the sender has not sent any weather packets the latest 10 day(s).
| Time | Temp. | Humidity | Pressure | Rain* | Wind** | Luminosity | Snow |
|---|---|---|---|---|---|---|---|
| 1777414142 | 21.11° C | 34% | 1013 hPa | 0 mm | - | - | - |
| 1777413242 | 21.11° C | 34% | 1013.4 hPa | 0 mm | - | - | - |
| 1777412342 | 21.67° C | 31% | 1013.2 hPa | 0 mm | - | - | - |
| 1777411442 | 21.67° C | 30% | 1013.3 hPa | 0 mm | - | - | - |
| 1777410542 | 22.22° C | 30% | 1013.4 hPa | 0 mm | - | - | - |
| 1777409642 | 22.22° C | 31% | 1013.6 hPa | 0 mm | - | - | - |
| 1777408742 | 22.22° C | 31% | 1013.7 hPa | 0 mm | - | - | - |
| 1777407842 | 22.22° C | 30% | 1014 hPa | 0 mm | - | - | - |
| 1777406942 | 22.78° C | 29% | 1014.2 hPa | 0 mm | - | - | - |
| 1777406042 | 22.78° C | 29% | 1014.5 hPa | 0 mm | - | - | - |
| 1777405142 | 22.78° C | 30% | 1014.8 hPa | 0 mm | - | - | - |
| 1777404242 | 22.78° C | 29% | 1015.1 hPa | 0 mm | - | - | - |
| 1777403342 | 23.33° C | 28% | 1015.2 hPa | 0 mm | - | - | - |
| 1777402442 | 23.33° C | 28% | 1015.3 hPa | 0 mm | - | - | - |
| 1777401542 | 23.33° C | 28% | 1015.4 hPa | 0 mm | - | - | - |
| 1777400642 | 23.89° C | 30% | 1015.5 hPa | 0 mm | - | - | - |
| 1777399742 | 23.89° C | 28% | 1015.6 hPa | 0 mm | - | - | - |
| 1777398842 | 23.89° C | 30% | 1015.7 hPa | 0 mm | - | - | - |
| 1777397942 | 23.33° C | 32% | 1015.8 hPa | 0 mm | - | - | - |
| 1777397042 | 23.33° C | 32% | 1016 hPa | 0 mm | - | - | - |
| 1777396142 | 22.78° C | 33% | 1016.2 hPa | 0 mm | - | - | - |
| 1777395242 | 22.78° C | 32% | 1016.5 hPa | 0 mm | - | - | - |
| 1777394342 | 22.78° C | 34% | 1016.7 hPa | 0 mm | - | - | - |
| 1777393442 | 22.78° C | 34% | 1017 hPa | 0 mm | - | - | - |
| 1777392542 | 22.78° C | 35% | 1017.4 hPa | 0 mm | - | - | - |
* Rain latest hour (hover to see other rain measurements)
** Current wind speed in m/s (hover to see current wind gust speed)